Temperature
17 18 18 18 17 17 17 17 17 17 17 17 17 17 17 17 17 18 17 17 17 18 18 18 18 18 18 18 18 18 18 18 18 18 18 18 18 18 18 18 18 18 18
18 18 18 18 17 17 17 17 17 17 17 17 17 17 17 17 17 17 17 17 17 17 17 17 17 17 18 18 18 18 18 18 18 18 18 18 18 18 18 18 18 18 18
18 18 18 18 17 17 17 17 17 17 17 17 17 17 17 17 17 17 17 17 17 17 17 17 17 17 18 17 17 18 17 17 17 17 17 17 17 17 17 17 17 18 18
18 17 18 18 17 17 17 17 17 17 17 17 17 17 17 17 17 17 17 17 17 17 17 17 17 17 17 17 17 17 17 17 17 17 17 17 17 17 17 17 17 17 17
17 17 18 18 18 17 17 17 17 17 17 17 17 17 17 17 17 17 17 17 17 17 17 17 17 17 17 17 17 17 17 17 17 17 17 17 17 17 17 17 17 17 17
17 17 18 18 17 17 17 17 17 17 17 17 17 17 17 17 17 17 17 17 17 17 17 17 17 17 17 17 17 17 17 17 17 17 17 17 17 17 17 17 17 17 17
17 17 18 18 17 17 17 17 17 17 17 17 17 17 17 17 17 17 16 17 17 17 17 17 17 17 17 17 17 17 17 16 16 16 17 17 16 16 16 17 17 17 17
17 17 18 17 17 17 17 17 17 17 17 17 17 17 16 16 16 17 16 16 17 17 17 17 17 17 17 17 17 16 16 16 16 16 16 16 16 16 16 16 16 16 16
18 17 17 17 17 17 17 17 17 17 17 17 16 16 16 16 16 16 16 16 16 16 16 16 16 16 17 17 16 16 16 16 16 16 16 16 16 16 16 16 16 16 16
18 18 17 17 17 17 17 17 17 17 17 16 16 16 16 16 16 16 16 16 16 16 16 16 16 16 16 16 16 16 16 16 16 16 16 16 16 16 16 16 16 16 16
18 18 18 17 17 17 17 17 17 17 17 16 16 16 16 16 16 16 16 16 16 16 16 16 16 16 16 16 16 16 16 16 16 16 16 16 16 16 16 15 16 16 16
18 18 18 17 17 17 17 17 17 16 16 16 16 16 16 16 16 16 16 16 16 16 16 16 16 16 16 16 16 16 15 15 16 16 16 16 16 15 15 15 15 15 15
18 18 18 17 17 17 17 17 16 16 16 16 16 16 16 16 16 16 16 15 15 15 16 16 16 16 16 16 15 15 15 15 15 15 15 15 15 15 15 15 15 15 15
18 18 17 17 17 17 17 17 17 16 16 16 16 16 16 16 16 16 15 15 15 15 15 15 16 16 16 15 16 15 15 15 15 15 15 15 15 15 15 15 15 15 15
18 18 17 17 17 17 17 17 16 16 16 16 16 16 16 16 16 16 15 15 15 15 15 15 15 15 15 15 15 15 15 15 15 15 15 15 15 15 15 15 14 14 14
18 18 17 17 17 17 17 17 16 16 16 16 16 16 16 16 16 15 15 15 15 15 15 15 15 15 15 15 15 15 15 15 15 15 15 15 15 15 15 14 14 14 14
18 18 18 18 17 17 17 16 16 16 16 16 16 16 16 16 16 15 15 15 15 15 15 15 15 15 15 15 15 15 15 14 14 14 14 14 14 14 14 14 14 14 14
18 18 18 17 17 17 17 16 16 16 16 16 16 16 16 16 16 15 15 15 15 15 15 15 15 15 15 15 15 15 14 14 14 14 14 14 14 14 14 14 14 14 14
18 18 18 17 17 17 17 16 16 16 16 16 16 16 16 16 15 15 15 15 15 15 15 15 15 15 15 15 14 14 14 14 14 14 14 14 14 14 14 14 14 14 13
18 18 18 17 17 17 17 16 16 16 16 16 15 15 15 15 15 15 15 15 15 15 15 15 15 14 14 14 14 14 14 14 14 14 14 14 14 14 13 13 14 14 13
18 18 18 18 17 17 16 16 16 16 16 16 15 15 15 15 15 15 15 15 15 15 14 14 14 14 14 14 14 14 14 14 14 14 14 14 14 13 13 13 13 13 13
18 18 18 17 17 17 17 16 16 16 16 15 15 15 15 15 15 15 15 15 15 14 14 14 14 14 14 14 14 14 14 14 14 14 14 14 13 13 13 13 13 13 13
18 18 18 17 17 17 16 16 16 16 16 16 15 15 15 15 15 15 15 15 14 14 14 14 14 14 14 14 14 14 14 14 14 13 13 14 13 13 13 13 13 13 13
18 18 17 17 17 17 16 16 16 16 16 15 15 15 15 15 15 15 15 15 14 14 14 14 14 14 14 14 14 14 14 14 14 13 13 13 13 13 13 13 13 13 13
18 17 17 17 17 17 16 16 16 16 16 15 15 15 15 15 15 15 15 15 15 14 14 14 14 14 14 14 14 14 14 14 14 13 13 13 13 13 13 13 13 12 12
18 17 17 17 17 17 16 16 16 16 15 15 15 15 15 15 15 15 15 15 15 14 14 14 14 14 14 14 14 14 14 14 14 14 13 13 13 13 13 13 13 12 12
Wind_Speed
6 10 9 10 10 9 9 8 8 10 10 11 11 11 10 10 10 10 10 10 11 11 11 12 12 11 12 12 11 11 11 11 11 10 9 10 10 9 9 9 8 8 8
8 11 10 10 10 10 10 10 10 11 11 11 11 11 11 10 10 10 10 10 10 11 11 11 12 12 12 12 11 11 11 10 10 9 9 9 9 9 10 9 9 8 9
9 11 11 10 10 11 11 11 12 12 11 11 11 11 11 10 11 10 10 10 10 11 11 11 11 12 12 12 11 11 10 9 9 9 8 7 8 10 10 10 10 10 10
10 10 11 10 10 11 11 11 11 11 11 11 11 11 10 10 10 10 10 10 11 11 11 11 11 12 12 11 11 11 10 9 9 9 9 10 10 11 11 11 11 11 11
10 12 11 10 10 11 11 11 11 11 11 11 11 11 10 9 9 11 11 11 11 11 11 12 11 12 12 11 11 11 10 10 10 10 11 12 12 13 13 13 12 11 12
10 12 12 11 11 11 11 12 12 12 11 11 11 11 11 11 11 12 12 12 12 12 12 12 12 12 11 11 11 11 11 11 10 11 12 12 11 13 14 13 13 12 12
9 11 12 11 11 11 11 11 12 12 11 11 11 12 13 14 13 13 13 13 13 12 13 13 13 13 12 12 12 11 11 11 10 11 12 12 12 14 15 15 14 13 13
9 11 12 12 11 11 11 11 11 12 12 12 12 13 14 14 14 13 13 13 13 13 13 13 13 12 12 11 11 12 12 12 12 12 13 12 14 15 15 16 15 14 14
8 9 10 11 11 11 11 11 11 11 11 11 11 12 12 13 13 13 13 13 13 12 12 11 11 11 11 10 10 11 12 14 12 10 12 12 15 15 15 15 15 15 15
7 7 8 9 10 10 10 10 10 10 9 10 9 9 10 11 12 13 12 12 12 11 10 10 9 9 9 9 9 9 11 12 12 12 11 13 16 15 15 15 15 15 15
6 5 6 7 8 9 9 9 8 8 7 8 7 6 6 8 10 11 11 11 10 9 9 7 6 6 6 7 8 8 9 10 11 11 12 14 15 15 15 14 14 15 15
5 5 5 5 5 6 7 8 6 6 6 5 6 6 5 7 9 10 9 9 8 7 6 4 3 2 3 5 5 6 8 10 10 10 12 15 15 15 14 14 14 14 14
5 5 5 5 4 4 4 4 3 4 4 3 5 7 6 6 7 8 5 5 5 4 3 3 2 3 5 5 5 7 8 9 10 11 12 15 14 14 14 14 14 14 14
6 5 4 4 3 4 5 3 3 2 3 3 3 7 5 3 4 4 4 3 3 3 4 4 3 6 7 7 8 8 9 9 10 10 12 15 14 14 14 14 14 14 14
7 6 4 3 4 4 4 2 4 3 3 4 3 5 6 3 3 3 4 3 4 4 4 4 4 5 6 7 8 8 8 10 10 11 11 14 14 14 14 14 14 14 14
7 6 5 4 4 5 4 3 3 3 3 3 2 4 6 4 4 3 4 3 3 3 4 4 5 4 5 5 6 7 7 9 9 10 10 12 14 14 14 14 14 13 13
6 6 5 4 4 5 5 4 3 3 4 3 2 3 5 5 6 4 3 2 2 4 5 5 5 4 4 4 5 6 6 7 7 8 8 9 11 13 13 13 13 12 12
5 6 5 4 4 5 5 4 2 3 4 3 3 3 4 6 7 5 3 2 4 5 4 3 3 4 4 4 4 4 4 5 6 7 7 8 8 9 11 12 12 12 12
5 6 5 5 4 5 4 4 2 3 3 3 3 2 3 5 7 5 3 3 5 4 3 3 4 3 4 3 3 3 3 3 4 6 6 7 8 8 9 10 11 11 11
4 5 6 5 5 5 4 3 2 2 2 3 3 3 3 4 5 5 2 4 5 3 3 3 4 3 2 2 3 4 3 3 3 4 4 5 6 7 8 8 8 9 11
4 4 5 5 5 4 3 3 3 2 1 2 2 3 3 4 5 4 3 3 3 3 3 3 2 2 2 1 2 2 2 3 3 3 2 3 4 5 6 7 7 8 8
4 4 5 5 5 5 3 2 3 3 2 2 2 2 3 3 3 2 3 3 3 3 3 3 2 1 1 1 1 1 1 2 2 2 2 2 2 3 4 5 6 8 8
4 4 4 5 5 5 4 2 2 3 2 1 2 2 1 2 2 3 3 3 3 3 2 1 2 1 1 2 1 2 1 1 0 1 1 2 2 3 2 3 6 7 9
5 4 4 4 5 5 5 3 3 3 3 2 2 2 2 2 2 3 3 3 3 3 3 2 2 1 1 1 1 2 1 2 1 0 1 1 2 3 2 3 4 6 8
4 4 4 3 3 4 4 4 3 3 3 2 2 2 2 2 2 3 3 2 3 2 2 1 2 2 1 1 0 1 1 1 0 2 0 0 1 1 2 2 3 5 7
4 3 3 3 3 3 3 4 4 4 3 3 3 3 2 2 2 2 3 2 3 2 2 2 1 1 1 1 1 1 1 0 1 1 1 1 1 0 2 2 2 3 5
Wind_Direction
83 84 75 67 61 58 61 67 72 69 69 67 63 61 61 64 66 64 63 63 62 60 61 60 59 59 60 58 57 59 61 63 64 64 65 68 68 66 63 62 63 65 77
96 92 81 70 63 64 67 73 77 76 72 68 65 62 63 67 69 68 67 66 65 63 62 61 60 60 61 61 61 60 60 62 61 64 68 69 70 68 64 62 63 64 72
95 98 87 73 68 69 73 77 78 78 75 70 65 63 65 67 70 68 68 67 66 64 62 62 62 62 63 63 63 62 57 56 54 54 56 64 72 69 66 64 67 66 68
93 91 87 80 75 73 72 77 78 78 75 72 67 63 63 66 71 72 69 69 67 65 62 64 63 65 65 64 63 61 55 50 44 46 54 56 65 67 65 65 68 66 65
92 91 92 86 82 78 75 79 80 77 75 73 69 65 62 66 75 76 72 69 67 66 67 66 65 67 66 64 63 58 51 42 41 54 62 60 64 65 63 63 64 65 63
97 96 96 90 88 84 80 81 82 81 77 73 71 66 64 72 81 79 72 68 67 68 70 69 67 67 65 65 62 56 48 42 49 64 66 66 66 66 63 62 63 65 63
102 102 102 98 95 90 87 84 84 84 79 77 74 70 70 76 82 80 75 69 69 71 71 69 69 66 62 60 57 52 48 47 60 69 70 67 67 68 65 64 67 68 67
110 111 111 109 102 95 91 88 87 85 82 80 78 76 76 78 81 80 77 74 72 72 71 69 69 66 64 60 56 51 44 48 60 67 72 67 71 70 68 67 67 70 70
108 114 120 122 115 105 99 96 93 90 88 86 86 84 85 85 86 85 80 78 75 74 73 71 69 67 64 60 58 54 49 51 56 58 68 66 71 70 69 69 67 69 71
113 121 127 128 127 122 116 111 107 102 100 99 98 97 96 94 92 89 84 82 79 77 76 76 74 71 65 58 58 58 53 52 60 63 65 70 71 70 70 70 69 69 70
112 117 122 126 130 129 127 120 125 119 117 122 125 124 121 112 103 94 91 90 88 86 84 82 83 83 75 62 56 58 60 63 63 66 65 72 71 71 70 71 70 70 71
118 117 111 116 119 121 121 134 143 130 141 150 132 132 121 101 99 102 104 102 102 97 95 88 80 74 74 70 65 67 70 69 65 69 69 72 71 72 71 71 71 71 71
130 115 115 115 109 115 111 121 113 120 137 105 102 99 86 97 109 109 115 120 115 103 75 66 57 58 67 67 73 72 71 71 66 68 68 72 72 73 72 72 74 73 72
123 112 112 118 119 114 112 111 105 101 96 80 79 97 88 86 93 101 98 83 86 77 61 57 51 50 50 50 62 67 71 74 75 78 71 72 72 73 72 72 75 74 72
134 139 133 137 125 110 98 100 95 74 74 79 55 95 94 82 89 97 92 76 63 72 68 53 48 51 48 41 55 60 65 72 74 78 75 72 71 70 70 73 76 74 71
143 142 141 139 124 116 110 98 86 88 87 85 51 72 94 96 94 87 92 77 65 62 69 72 63 58 59 50 52 58 66 75 75 82 84 76 71 69 68 72 74 73 73
147 141 133 131 115 110 105 97 95 100 99 78 54 53 87 87 85 83 81 71 69 61 61 61 62 64 73 65 58 56 57 64 75 84 87 88 80 71 71 72 72 73 75
142 137 137 140 122 113 109 106 97 99 96 92 70 35 63 80 84 77 76 69 67 59 60 55 52 57 59 60 55 55 55 51 60 73 80 87 90 86 80 76 74 74 75
144 140 144 134 123 107 107 108 89 101 105 100 90 57 52 73 87 87 76 81 74 61 50 50 53 60 69 67 69 72 64 57 48 58 68 79 86 97 99 87 80 76 73
146 146 144 134 132 125 123 117 94 85 97 95 94 91 71 74 83 86 84 76 79 70 52 54 57 51 65 73 65 68 68 80 62 46 45 71 81 94 103 104 96 81 76
145 137 132 135 133 127 125 126 124 117 99 96 85 87 89 89 92 88 79 74 75 86 82 76 65 54 42 67 72 53 41 72 83 72 42 54 71 79 94 103 105 98 88
154 144 137 142 141 132 129 139 148 138 131 119 100 81 87 88 94 116 112 104 94 95 80 75 73 50 356 33 93 89 67 29 27 89 79 68 63 61 74 88 106 107 100
159 155 154 146 141 140 140 139 134 123 126 115 139 128 117 136 138 118 110 114 121 114 109 110 113 87 5 349 50 88 104 128 333 24 89 88 81 63 57 67 79 94 103
154 144 145 145 140 144 147 152 155 152 148 166 151 150 154 140 131 127 120 117 123 125 139 183 147 133 121 331 359 32 94 140 135 54 353 85 119 102 87 73 71 79 96
135 136 142 143 139 144 150 145 155 144 155 147 130 143 160 158 151 138 128 124 132 139 155 185 152 170 160 181 154 45 17 9 119 132 217 301 62 100 113 101 91 88 96
111 120 131 140 142 151 158 159 158 154 165 156 162 170 180 164 167 152 152 161 159 166 172 176 175 170 192 196 157 141 168 171 279 130 167 212 148 156 107 101 106 104 104
Height
1515 1514 1513 1512 1510 1508 1506 1505 1506 1508 1510 1511 1511 1511 1511 1511 1511 1512 1512 1512 1512 1513 1513 1513 1513 1513 1513 1513 1513 1513 1513 1514 1514 1514 1515 1515 1516 1516 1516 1516 1516 1516 1517
1516 1515 1514 1513 1511 1507 1505 1505 1506 1509 1511 1512 1512 1512 1512 1512 1512 1513 1513 1513 1513 1514 1514 1514 1514 1514 1514 1514 1515 1515 1515 1515 1515 1516 1516 1516 1516 1517 1517 1517 1517 1516 1517
1517 1516 1515 1514 1512 1510 1508 1508 1509 1511 1513 1513 1513 1513 1513 1513 1513 1514 1514 1514 1514 1515 1515 1515 1515 1516 1516 1516 1516 1516 1516 1517 1517 1517 1517 1517 1517 1517 1517 1517 1517 1517 1516
1518 1517 1516 1516 1514 1513 1512 1512 1513 1514 1515 1515 1514 1514 1513 1513 1513 1514 1515 1515 1516 1516 1516 1516 1517 1517 1517 1517 1517 1518 1518 1518 1518 1518 1518 1518 1518 1518 1518 1517 1517 1517 1516
1519 1518 1518 1517 1517 1516 1516 1516 1516 1516 1516 1516 1515 1515 1513 1511 1512 1515 1516 1516 1517 1517 1517 1517 1518 1518 1518 1519 1519 1519 1520 1520 1520 1519 1519 1520 1519 1519 1519 1518 1518 1517 1516
1520 1519 1519 1519 1518 1518 1518 1518 1518 1518 1518 1518 1517 1515 1512 1509 1510 1514 1517 1518 1518 1519 1519 1519 1519 1520 1520 1520 1520 1521 1521 1521 1521 1521 1521 1521 1520 1520 1520 1519 1519 1518 1516
1521 1520 1520 1520 1520 1520 1520 1520 1520 1520 1520 1519 1519 1517 1514 1511 1513 1516 1518 1519 1520 1520 1520 1521 1521 1521 1521 1521 1522 1522 1522 1522 1523 1522 1522 1522 1522 1522 1521 1520 1520 1519 1518
1522 1521 1522 1521 1521 1521 1522 1522 1522 1522 1522 1521 1521 1520 1518 1517 1518 1520 1521 1521 1522 1522 1522 1523 1523 1523 1523 1523 1524 1524 1524 1524 1524 1524 1524 1524 1524 1523 1523 1522 1522 1521 1520
1523 1523 1523 1523 1523 1523 1523 1524 1523 1524 1523 1523 1523 1523 1522 1522 1522 1523 1523 1524 1524 1524 1524 1525 1525 1525 1525 1525 1526 1526 1526 1526 1526 1525 1525 1525 1525 1525 1525 1524 1524 1523 1523
1524 1524 1524 1524 1525 1525 1525 1526 1526 1526 1526 1526 1526 1526 1525 1525 1526 1526 1526 1526 1527 1527 1527 1527 1527 1528 1528 1528 1528 1528 1528 1528 1528 1527 1527 1527 1527 1527 1527 1526 1526 1526 1525
1526 1526 1527 1527 1527 1527 1527 1528 1528 1528 1528 1528 1528 1528 1528 1528 1528 1529 1529 1529 1529 1529 1529 1530 1530 1530 1530 1530 1530 1530 1530 1530 1530 1529 1529 1529 1529 1529 1529 1528 1528 1528 1528
1526 1527 1528 1528 1529 1529 1529 1529 1529 1530 1530 1530 1531 1531 1531 1531 1531 1531 1531 1531 1532 1532 1532 1532 1532 1532 1533 1533 1533 1532 1532 1532 1532 1531 1531 1531 1531 1531 1531 1531 1530 1530 1530
1527 1528 1529 1529 1530 1530 1531 1531 1531 1531 1532 1532 1533 1533 1533 1533 1533 1533 1533 1533 1534 1534 1534 1534 1534 1534 1535 1535 1535 1534 1534 1534 1534 1533 1533 1533 1533 1533 1533 1532 1532 1532 1532
1527 1528 1529 1530 1530 1531 1531 1532 1532 1533 1533 1533 1534 1534 1534 1535 1535 1535 1535 1535 1535 1536 1536 1536 1536 1536 1536 1537 1537 1536 1536 1536 1536 1535 1535 1535 1535 1534 1534 1534 1534 1534 1533
1527 1528 1529 1530 1531 1532 1532 1533 1533 1534 1534 1534 1535 1536 1536 1536 1536 1536 1537 1537 1537 1537 1538 1538 1538 1538 1538 1538 1538 1538 1538 1537 1537 1537 1537 1537 1536 1536 1536 1536 1535 1535 1535
1526 1528 1529 1530 1531 1532 1532 1533 1533 1534 1535 1535 1536 1536 1537 1537 1537 1538 1538 1538 1538 1539 1539 1539 1539 1539 1539 1539 1539 1539 1539 1539 1539 1539 1538 1538 1538 1537 1537 1537 1537 1537 1537
1526 1527 1529 1530 1531 1532 1532 1533 1534 1534 1535 1536 1536 1537 1538 1538 1538 1538 1539 1539 1539 1540 1540 1540 1540 1540 1540 1540 1541 1541 1541 1541 1541 1541 1540 1540 1539 1539 1539 1539 1539 1538 1538
1525 1526 1528 1530 1531 1531 1532 1533 1534 1534 1535 1536 1537 1538 1538 1539 1539 1539 1539 1540 1540 1541 1541 1541 1541 1541 1542 1542 1542 1542 1542 1543 1542 1542 1542 1541 1541 1541 1540 1540 1540 1540 1540
1524 1526 1527 1529 1530 1531 1532 1532 1533 1534 1535 1536 1537 1538 1538 1539 1539 1540 1540 1541 1541 1541 1542 1542 1542 1542 1542 1542 1543 1543 1543 1544 1544 1544 1543 1543 1542 1542 1542 1542 1541 1541 1541
1524 1525 1527 1528 1529 1530 1531 1532 1533 1534 1535 1536 1537 1538 1538 1539 1539 1540 1541 1541 1541 1542 1542 1542 1542 1543 1543 1543 1544 1544 1544 1544 1545 1544 1544 1544 1544 1544 1543 1543 1543 1542 1542
1523 1525 1526 1526 1528 1529 1530 1531 1532 1533 1535 1536 1537 1537 1538 1539 1539 1540 1541 1541 1541 1542 1542 1542 1543 1543 1543 1544 1544 1544 1545 1545 1545 1545 1545 1545 1545 1545 1544 1544 1544 1543 1543
1522 1523 1525 1526 1527 1528 1529 1530 1532 1533 1534 1535 1536 1537 1538 1539 1539 1540 1541 1541 1541 1542 1542 1542 1543 1543 1544 1544 1545 1544 1545 1547 1546 1546 1546 1546 1545 1545 1545 1545 1545 1544 1544
1521 1522 1524 1525 1526 1527 1528 1530 1531 1532 1533 1534 1535 1536 1537 1538 1539 1540 1540 1541 1541 1541 1542 1542 1543 1543 1544 1544 1545 1546 1546 1546 1547 1547 1547 1546 1546 1546 1546 1546 1546 1545 1544
1519 1521 1522 1524 1525 1526 1527 1528 1529 1531 1532 1533 1534 1535 1536 1537 1538 1539 1540 1541 1541 1541 1541 1542 1543 1543 1543 1544 1545 1545 1546 1546 1546 1547 1547 1547 1546 1546 1546 1546 1546 1546 1545
1519 1520 1521 1522 1524 1524 1525 1527 1528 1529 1531 1532 1533 1534 1535 1536 1537 1538 1539 1539 1540 1541 1541 1542 1542 1543 1543 1544 1544 1545 1545 1545 1546 1546 1546 1547 1547 1546 1546 1546 1546 1546 1545
1517 1519 1520 1521 1522 1523 1524 1525 1526 1527 1529 1531 1532 1533 1534 1535 1536 1537 1538 1538 1539 1539 1540 1541 1541 1542 1543 1543 1544 1544 1544 1545 1545 1545 1545 1546 1546 1546 1546 1546 1546 1545 1545